﻿測定場所 (Monitoring sites),日付 (Measurement date),時間 (Measurement time),線量率 最大値 (max) μGy/h,線量率 最小値 (min) μGy/h,線量率 平均値 (average) μGy/h,
江戸川 (Edogawa),2021-03-28,23:01～24:00,0.0512,0.0429,0.0462,
江戸川 (Edogawa),2021-03-28,22:01～23:00,0.0537,0.0464,0.0505,
江戸川 (Edogawa),2021-03-28,21:01～22:00,0.0534,0.0442,0.0481,
江戸川 (Edogawa),2021-03-28,20:01～21:00,0.0492,0.0399,0.0435,
江戸川 (Edogawa),2021-03-28,19:01～20:00,0.0464,0.0389,0.0432,
江戸川 (Edogawa),2021-03-28,18:01～19:00,0.0454,0.0397,0.0422,
江戸川 (Edogawa),2021-03-28,17:01～18:00,0.0466,0.0392,0.0423,
江戸川 (Edogawa),2021-03-28,16:01～17:00,0.0453,0.0387,0.0417,
江戸川 (Edogawa),2021-03-28,15:01～16:00,0.0456,0.0395,0.0424,
江戸川 (Edogawa),2021-03-28,14:01～15:00,0.0461,0.0401,0.0434,
江戸川 (Edogawa),2021-03-28,13:01～14:00,0.0516,0.0415,0.0463,
江戸川 (Edogawa),2021-03-28,12:01～13:00,0.0584,0.0471,0.0538,
江戸川 (Edogawa),2021-03-28,11:01～12:00,0.0564,0.0416,0.0481,
江戸川 (Edogawa),2021-03-28,10:01～11:00,0.0455,0.0402,0.0432,
江戸川 (Edogawa),2021-03-28,09:01～10:00,0.0464,0.0410,0.0436,
江戸川 (Edogawa),2021-03-28,08:01～09:00,0.0469,0.0413,0.0437,
江戸川 (Edogawa),2021-03-28,07:01～08:00,0.0470,0.0405,0.0432,
江戸川 (Edogawa),2021-03-28,06:01～07:00,0.0463,0.0404,0.0433,
江戸川 (Edogawa),2021-03-28,05:01～06:00,0.0455,0.0403,0.0435,
江戸川 (Edogawa),2021-03-28,04:01～05:00,0.0461,0.0400,0.0430,
江戸川 (Edogawa),2021-03-28,03:01～04:00,0.0465,0.0412,0.0434,
江戸川 (Edogawa),2021-03-28,02:01～03:00,0.0473,0.0404,0.0431,
江戸川 (Edogawa),2021-03-28,01:01～02:00,0.0494,0.0395,0.0431,
江戸川 (Edogawa),2021-03-28,00:01～01:00,0.0470,0.0404,0.0434,
江戸川 (Edogawa),2021-03-27,23:01～24:00,0.0466,0.0396,0.0430,
江戸川 (Edogawa),2021-03-27,22:01～23:00,0.0457,0.0402,0.0429,
江戸川 (Edogawa),2021-03-27,21:01～22:00,0.0448,0.0404,0.0430,
江戸川 (Edogawa),2021-03-27,20:01～21:00,0.0462,0.0400,0.0432,
江戸川 (Edogawa),2021-03-27,19:01～20:00,0.0475,0.0397,0.0437,
江戸川 (Edogawa),2021-03-27,18:01～19:00,0.0466,0.0408,0.0435,
江戸川 (Edogawa),2021-03-27,17:01～18:00,0.0457,0.0397,0.0430,
江戸川 (Edogawa),2021-03-27,16:01～17:00,0.0475,0.0400,0.0431,
江戸川 (Edogawa),2021-03-27,15:01～16:00,0.0465,0.0409,0.0438,
江戸川 (Edogawa),2021-03-27,14:01～15:00,0.0460,0.0404,0.0431,
江戸川 (Edogawa),2021-03-27,13:01～14:00,0.0473,0.0402,0.0436,
江戸川 (Edogawa),2021-03-27,12:01～13:00,0.0466,0.0404,0.0434,
江戸川 (Edogawa),2021-03-27,11:01～12:00,0.0459,0.0401,0.0429,
江戸川 (Edogawa),2021-03-27,10:01～11:00,0.0467,0.0411,0.0438,
江戸川 (Edogawa),2021-03-27,09:01～10:00,0.0474,0.0400,0.0439,
江戸川 (Edogawa),2021-03-27,08:01～09:00,0.0466,0.0395,0.0435,
江戸川 (Edogawa),2021-03-27,07:01～08:00,0.0463,0.0399,0.0432,
江戸川 (Edogawa),2021-03-27,06:01～07:00,0.0450,0.0402,0.0430,
江戸川 (Edogawa),2021-03-27,05:01～06:00,0.0465,0.0399,0.0431,
江戸川 (Edogawa),2021-03-27,04:01～05:00,0.0454,0.0392,0.0427,
江戸川 (Edogawa),2021-03-27,03:01～04:00,0.0465,0.0395,0.0429,
江戸川 (Edogawa),2021-03-27,02:01～03:00,0.0452,0.0407,0.0428,
江戸川 (Edogawa),2021-03-27,01:01～02:00,0.0477,0.0399,0.0427,
江戸川 (Edogawa),2021-03-27,00:01～01:00,0.0454,0.0398,0.0428,
江戸川 (Edogawa),2021-03-26,23:01～24:00,0.0462,0.0404,0.0430,
江戸川 (Edogawa),2021-03-26,22:01～23:00,0.0457,0.0398,0.0431,
江戸川 (Edogawa),2021-03-26,21:01～22:00,0.0460,0.0378,0.0427,
江戸川 (Edogawa),2021-03-26,20:01～21:00,0.0469,0.0400,0.0430,
江戸川 (Edogawa),2021-03-26,19:01～20:00,0.0480,0.0400,0.0427,
江戸川 (Edogawa),2021-03-26,18:01～19:00,0.0466,0.0395,0.0429,
江戸川 (Edogawa),2021-03-26,17:01～18:00,0.0453,0.0410,0.0431,
江戸川 (Edogawa),2021-03-26,16:01～17:00,0.0457,0.0404,0.0429,
江戸川 (Edogawa),2021-03-26,15:01～16:00,0.0472,0.0395,0.0433,
江戸川 (Edogawa),2021-03-26,14:01～15:00,0.0462,0.0391,0.0432,
江戸川 (Edogawa),2021-03-26,13:01～14:00,0.0461,0.0401,0.0433,
江戸川 (Edogawa),2021-03-26,12:01～13:00,0.0465,0.0395,0.0434,
江戸川 (Edogawa),2021-03-26,11:01～12:00,0.0468,0.0401,0.0431,
江戸川 (Edogawa),2021-03-26,10:01～11:00,0.0475,0.0414,0.0439,
江戸川 (Edogawa),2021-03-26,09:01～10:00,0.0465,0.0397,0.0432,
江戸川 (Edogawa),2021-03-26,08:01～09:00,0.0463,0.0398,0.0436,
江戸川 (Edogawa),2021-03-26,07:01～08:00,0.0462,0.0400,0.0431,
江戸川 (Edogawa),2021-03-26,06:01～07:00,0.0452,0.0400,0.0429,
江戸川 (Edogawa),2021-03-26,05:01～06:00,0.0458,0.0399,0.0428,
江戸川 (Edogawa),2021-03-26,04:01～05:00,0.0467,0.0396,0.0431,
江戸川 (Edogawa),2021-03-26,03:01～04:00,0.0456,0.0399,0.0430,
江戸川 (Edogawa),2021-03-26,02:01～03:00,0.0463,0.0393,0.0429,
江戸川 (Edogawa),2021-03-26,01:01～02:00,0.0450,0.0385,0.0424,
江戸川 (Edogawa),2021-03-26,00:01～01:00,0.0456,0.0382,0.0421,
江戸川 (Edogawa),2021-03-25,23:01～24:00,0.0452,0.0392,0.0420,
江戸川 (Edogawa),2021-03-25,22:01～23:00,0.0449,0.0385,0.0418,
江戸川 (Edogawa),2021-03-25,21:01～22:00,0.0457,0.0379,0.0421,
江戸川 (Edogawa),2021-03-25,20:01～21:00,0.0452,0.0391,0.0419,
江戸川 (Edogawa),2021-03-25,19:01～20:00,0.0452,0.0392,0.0420,
江戸川 (Edogawa),2021-03-25,18:01～19:00,0.0447,0.0396,0.0420,
江戸川 (Edogawa),2021-03-25,17:01～18:00,0.0471,0.0405,0.0434,
江戸川 (Edogawa),2021-03-25,16:01～17:00,0.0503,0.0417,0.0459,
江戸川 (Edogawa),2021-03-25,15:01～16:00,0.0494,0.0443,0.0467,
江戸川 (Edogawa),2021-03-25,14:01～15:00,0.0483,0.0422,0.0455,
江戸川 (Edogawa),2021-03-25,13:01～14:00,0.0474,0.0390,0.0430,
江戸川 (Edogawa),2021-03-25,12:01～13:00,0.0457,0.0394,0.0427,
江戸川 (Edogawa),2021-03-25,11:01～12:00,0.0466,0.0392,0.0427,
江戸川 (Edogawa),2021-03-25,10:01～11:00,0.0487,0.0394,0.0430,
江戸川 (Edogawa),2021-03-25,09:01～10:00,0.0458,0.0400,0.0426,
江戸川 (Edogawa),2021-03-25,08:01～09:00,0.0458,0.0397,0.0426,
江戸川 (Edogawa),2021-03-25,07:01～08:00,0.0475,0.0398,0.0427,
江戸川 (Edogawa),2021-03-25,06:01～07:00,0.0445,0.0395,0.0423,
江戸川 (Edogawa),2021-03-25,05:01～06:00,0.0460,0.0390,0.0427,
江戸川 (Edogawa),2021-03-25,04:01～05:00,0.0457,0.0390,0.0424,
江戸川 (Edogawa),2021-03-25,03:01～04:00,0.0455,0.0390,0.0423,
江戸川 (Edogawa),2021-03-25,02:01～03:00,0.0448,0.0389,0.0422,
江戸川 (Edogawa),2021-03-25,01:01～02:00,0.0450,0.0395,0.0419,
江戸川 (Edogawa),2021-03-25,00:01～01:00,0.0452,0.0398,0.0426,
江戸川 (Edogawa),2021-03-24,23:01～24:00,0.0471,0.0402,0.0424,
江戸川 (Edogawa),2021-03-24,22:01～23:00,0.0467,0.0400,0.0423,
江戸川 (Edogawa),2021-03-24,21:01～22:00,0.0447,0.0390,0.0422,
江戸川 (Edogawa),2021-03-24,20:01～21:00,0.0456,0.0387,0.0426,
江戸川 (Edogawa),2021-03-24,19:01～20:00,0.0458,0.0396,0.0425,
江戸川 (Edogawa),2021-03-24,18:01～19:00,0.0459,0.0386,0.0422,
江戸川 (Edogawa),2021-03-24,17:01～18:00,0.0464,0.0404,0.0432,
江戸川 (Edogawa),2021-03-24,16:01～17:00,0.0464,0.0397,0.0431,
江戸川 (Edogawa),2021-03-24,15:01～16:00,0.0460,0.0403,0.0427,
江戸川 (Edogawa),2021-03-24,14:01～15:00,0.0461,0.0395,0.0428,
江戸川 (Edogawa),2021-03-24,13:01～14:00,0.0461,0.0402,0.0431,
江戸川 (Edogawa),2021-03-24,12:01～13:00,0.0455,0.0404,0.0433,
江戸川 (Edogawa),2021-03-24,11:01～12:00,0.0466,0.0405,0.0433,
江戸川 (Edogawa),2021-03-24,10:01～11:00,0.0475,0.0400,0.0434,
江戸川 (Edogawa),2021-03-24,09:01～10:00,0.0459,0.0414,0.0436,
江戸川 (Edogawa),2021-03-24,08:01～09:00,0.0490,0.0417,0.0440,
江戸川 (Edogawa),2021-03-24,07:01～08:00,0.0459,0.0400,0.0434,
江戸川 (Edogawa),2021-03-24,06:01～07:00,0.0455,0.0395,0.0431,
江戸川 (Edogawa),2021-03-24,05:01～06:00,0.0458,0.0403,0.0428,
江戸川 (Edogawa),2021-03-24,04:01～05:00,0.0452,0.0396,0.0425,
江戸川 (Edogawa),2021-03-24,03:01～04:00,0.0463,0.0393,0.0427,
江戸川 (Edogawa),2021-03-24,02:01～03:00,0.0457,0.0392,0.0423,
江戸川 (Edogawa),2021-03-24,01:01～02:00,0.0454,0.0389,0.0422,
江戸川 (Edogawa),2021-03-24,00:01～01:00,0.0450,0.0400,0.0423,
江戸川 (Edogawa),2021-03-23,23:01～24:00,0.0466,0.0403,0.0424,
江戸川 (Edogawa),2021-03-23,22:01～23:00,0.0448,0.0392,0.0419,
江戸川 (Edogawa),2021-03-23,21:01～22:00,0.0461,0.0396,0.0423,
江戸川 (Edogawa),2021-03-23,20:01～21:00,0.0448,0.0401,0.0423,
江戸川 (Edogawa),2021-03-23,19:01～20:00,0.0453,0.0402,0.0427,
江戸川 (Edogawa),2021-03-23,18:01～19:00,0.0450,0.0375,0.0420,
江戸川 (Edogawa),2021-03-23,17:01～18:00,0.0458,0.0389,0.0427,
江戸川 (Edogawa),2021-03-23,16:01～17:00,0.0457,0.0401,0.0426,
江戸川 (Edogawa),2021-03-23,15:01～16:00,0.0465,0.0402,0.0430,
江戸川 (Edogawa),2021-03-23,14:01～15:00,0.0467,0.0399,0.0432,
江戸川 (Edogawa),2021-03-23,13:01～14:00,0.0461,0.0409,0.0430,
江戸川 (Edogawa),2021-03-23,12:01～13:00,0.0466,0.0398,0.0430,
江戸川 (Edogawa),2021-03-23,11:01～12:00,0.0458,0.0397,0.0428,
江戸川 (Edogawa),2021-03-23,10:01～11:00,0.0450,0.0399,0.0429,
江戸川 (Edogawa),2021-03-23,09:01～10:00,0.0465,0.0393,0.0428,
江戸川 (Edogawa),2021-03-23,08:01～09:00,0.0478,0.0393,0.0423,
江戸川 (Edogawa),2021-03-23,07:01～08:00,0.0452,0.0387,0.0420,
江戸川 (Edogawa),2021-03-23,06:01～07:00,0.0447,0.0393,0.0421,
江戸川 (Edogawa),2021-03-23,05:01～06:00,0.0454,0.0382,0.0418,
江戸川 (Edogawa),2021-03-23,04:01～05:00,0.0449,0.0386,0.0420,
江戸川 (Edogawa),2021-03-23,03:01～04:00,0.0443,0.0394,0.0421,
江戸川 (Edogawa),2021-03-23,02:01～03:00,0.0444,0.0384,0.0420,
江戸川 (Edogawa),2021-03-23,01:01～02:00,0.0451,0.0401,0.0421,
江戸川 (Edogawa),2021-03-23,00:01～01:00,0.0461,0.0400,0.0431,
江戸川 (Edogawa),2021-03-22,23:01～24:00,0.0498,0.0423,0.0458,
江戸川 (Edogawa),2021-03-22,22:01～23:00,0.0603,0.0442,0.0532,
江戸川 (Edogawa),2021-03-22,21:01～22:00,0.0667,0.0549,0.0616,
江戸川 (Edogawa),2021-03-22,20:01～21:00,0.0576,0.0480,0.0527,
江戸川 (Edogawa),2021-03-22,19:01～20:00,0.0514,0.0443,0.0487,
江戸川 (Edogawa),2021-03-22,18:01～19:00,0.0501,0.0436,0.0469,
江戸川 (Edogawa),2021-03-22,17:01～18:00,0.0498,0.0416,0.0449,
江戸川 (Edogawa),2021-03-22,16:01～17:00,0.0467,0.0407,0.0438,
江戸川 (Edogawa),2021-03-22,15:01～16:00,0.0458,0.0407,0.0433,
江戸川 (Edogawa),2021-03-22,14:01～15:00,0.0452,0.0398,0.0430,
江戸川 (Edogawa),2021-03-22,13:01～14:00,0.0474,0.0404,0.0432,
江戸川 (Edogawa),2021-03-22,12:01～13:00,0.0457,0.0404,0.0434,
江戸川 (Edogawa),2021-03-22,11:01～12:00,0.0462,0.0408,0.0432,
江戸川 (Edogawa),2021-03-22,10:01～11:00,0.0463,0.0392,0.0429,
江戸川 (Edogawa),2021-03-22,09:01～10:00,0.0462,0.0405,0.0430,
江戸川 (Edogawa),2021-03-22,08:01～09:00,0.0457,0.0406,0.0430,
江戸川 (Edogawa),2021-03-22,07:01～08:00,0.0459,0.0392,0.0429,
江戸川 (Edogawa),2021-03-22,06:01～07:00,0.0458,0.0400,0.0425,
江戸川 (Edogawa),2021-03-22,05:01～06:00,0.0455,0.0393,0.0425,
江戸川 (Edogawa),2021-03-22,04:01～05:00,0.0451,0.0393,0.0418,
江戸川 (Edogawa),2021-03-22,03:01～04:00,0.0453,0.0401,0.0427,
江戸川 (Edogawa),2021-03-22,02:01～03:00,0.0494,0.0406,0.0443,
江戸川 (Edogawa),2021-03-22,01:01～02:00,0.0559,0.0431,0.0502,
江戸川 (Edogawa),2021-03-22,00:01～01:00,0.0598,0.0411,0.0500,
